User: anonymous   Login
Location: Caltech
(34.1382°N, 118.1253°W)
Time: 09:05:57
(UTC-08:00)
Language:

Oscar 19 - Orbit

View from above orbital plane
View from above orbital plane
View from above satellite
View from above satellite

Ground track
Ground track

The orbit data is extracted from the following two-line orbital elements,

1 20442U 90005G   17344.81387954 +.00000018 +00000-0 +22820-4 0  9997
2 20442 098.5922 279.6500 0011646 351.9657 008.1338 14.32880763456912
Epoch (UTC): 10 December 2017 19:31:59
Eccentricity: 0.0011646
inclination: 98.5922°
perigee height: 774 km
apogee height: 790 km
right ascension of ascending node: 279.6500°
argument of perigee: 351.9657°
revolutions per day: 14.32880763
mean anomaly at epoch: 8.1338°
orbit number at epoch: 45691

The dashed part of the orbit path shows where the satellite is in the earth's shadow,  

DLR